<?xml version="1.0" encoding="UTF-8" standalone="yes"?>
<gpx version="1.1" creator="MagicMaps Tour Explorer"
     xmlns:xsi="http://www.w3.org/2001/XMLSchema-instance"
     xmlns="http://www.topografix.com/GPX/1/1">
  <trk>
    <name>testa_pe_de_giun_w</name>
    <trkseg>
      <trkpt lat="44.398625000" lon="6.926788000">
        <ele>1721.4</ele>
        <time>1970-01-01T01:00:00</time>
      </trkpt>
      <trkpt lat="44.398660000" lon="6.926787000">
        <ele>1747.3</ele>
        <time>1970-01-01T01:00:00</time>
      </trkpt>
      <trkpt lat="44.398612000" lon="6.926720000">
        <ele>1755.0</ele>
        <time>1970-01-01T01:00:00</time>
      </trkpt>
      <trkpt lat="44.398687000" lon="6.926564000">
        <ele>1756.5</ele>
        <time>1970-01-01T01:00:00</time>
      </trkpt>
      <trkpt lat="44.398713000" lon="6.926006000">
        <ele>1756.5</ele>
        <time>1970-01-01T01:00:00</time>
      </trkpt>
      <trkpt lat="44.398842000" lon="6.925631000">
        <ele>1756.9</ele>
        <time>1970-01-01T01:00:00</time>
      </trkpt>
      <trkpt lat="44.398741000" lon="6.925585000">
        <ele>1756.9</ele>
        <time>1970-01-01T01:00:00</time>
      </trkpt>
      <trkpt lat="44.398645000" lon="6.925459000">
        <ele>1756.9</ele>
        <time>1970-01-01T01:00:00</time>
      </trkpt>
      <trkpt lat="44.398622000" lon="6.925402000">
        <ele>1760.3</ele>
        <time>1970-01-01T01:00:00</time>
      </trkpt>
      <trkpt lat="44.398692000" lon="6.925170000">
        <ele>1761.3</ele>
        <time>1970-01-01T01:00:00</time>
      </trkpt>
      <trkpt lat="44.398721000" lon="6.925029000">
        <ele>1764.6</ele>
        <time>1970-01-01T01:00:00</time>
      </trkpt>
      <trkpt lat="44.398796000" lon="6.924568000">
        <ele>1767.5</ele>
        <time>1970-01-01T01:00:00</time>
      </trkpt>
      <trkpt lat="44.398709000" lon="6.924391000">
        <ele>1767.5</ele>
        <time>1970-01-01T01:00:00</time>
      </trkpt>
      <trkpt lat="44.398625000" lon="6.924337000">
        <ele>1766.6</ele>
        <time>1970-01-01T01:00:00</time>
      </trkpt>
      <trkpt lat="44.398625000" lon="6.924048000">
        <ele>1767.5</ele>
        <time>1970-01-01T01:00:00</time>
      </trkpt>
      <trkpt lat="44.398559000" lon="6.923976000">
        <ele>1768.5</ele>
        <time>1970-01-01T01:00:00</time>
      </trkpt>
      <trkpt lat="44.398401000" lon="6.923947000">
        <ele>1768.0</ele>
        <time>1970-01-01T01:00:00</time>
      </trkpt>
      <trkpt lat="44.398389000" lon="6.923916000">
        <ele>1768.5</ele>
        <time>1970-01-01T01:00:00</time>
      </trkpt>
      <trkpt lat="44.398197000" lon="6.923931000">
        <ele>1769.4</ele>
        <time>1970-01-01T01:00:00</time>
      </trkpt>
      <trkpt lat="44.398105000" lon="6.923869000">
        <ele>1770.9</ele>
        <time>1970-01-01T01:00:00</time>
      </trkpt>
      <trkpt lat="44.398002000" lon="6.923577000">
        <ele>1773.3</ele>
        <time>1970-01-01T01:00:00</time>
      </trkpt>
      <trkpt lat="44.397951000" lon="6.922914000">
        <ele>1779.5</ele>
        <time>1970-01-01T01:00:00</time>
      </trkpt>
      <trkpt lat="44.397704000" lon="6.922337000">
        <ele>1785.8</ele>
        <time>1970-01-01T01:00:00</time>
      </trkpt>
      <trkpt lat="44.397589000" lon="6.921954000">
        <ele>1791.6</ele>
        <time>1970-01-01T01:00:00</time>
      </trkpt>
      <trkpt lat="44.397411000" lon="6.921578000">
        <ele>1796.4</ele>
        <time>1970-01-01T01:00:00</time>
      </trkpt>
      <trkpt lat="44.397346000" lon="6.921486000">
        <ele>1795.4</ele>
        <time>1970-01-01T01:00:00</time>
      </trkpt>
      <trkpt lat="44.397353000" lon="6.921490000">
        <ele>1797.8</ele>
        <time>1970-01-01T01:00:00</time>
      </trkpt>
      <trkpt lat="44.397124000" lon="6.921086000">
        <ele>1801.2</ele>
        <time>1970-01-01T01:00:00</time>
      </trkpt>
      <trkpt lat="44.396860000" lon="6.920680000">
        <ele>1809.3</ele>
        <time>1970-01-01T01:00:00</time>
      </trkpt>
      <trkpt lat="44.396596000" lon="6.920442000">
        <ele>1816.5</ele>
        <time>1970-01-01T01:00:00</time>
      </trkpt>
      <trkpt lat="44.396012000" lon="6.919830000">
        <ele>1825.2</ele>
        <time>1970-01-01T01:00:00</time>
      </trkpt>
      <trkpt lat="44.395935000" lon="6.919558000">
        <ele>1828.6</ele>
        <time>1970-01-01T01:00:00</time>
      </trkpt>
      <trkpt lat="44.395695000" lon="6.919449000">
        <ele>1834.3</ele>
        <time>1970-01-01T01:00:00</time>
      </trkpt>
      <trkpt lat="44.395532000" lon="6.919311000">
        <ele>1840.1</ele>
        <time>1970-01-01T01:00:00</time>
      </trkpt>
      <trkpt lat="44.395291000" lon="6.919153000">
        <ele>1843.9</ele>
        <time>1970-01-01T01:00:00</time>
      </trkpt>
      <trkpt lat="44.395039000" lon="6.919084000">
        <ele>1846.8</ele>
        <time>1970-01-01T01:00:00</time>
      </trkpt>
      <trkpt lat="44.394536000" lon="6.918508000">
        <ele>1860.3</ele>
        <time>1970-01-01T01:00:00</time>
      </trkpt>
      <trkpt lat="44.394261000" lon="6.918271000">
        <ele>1866.1</ele>
        <time>1970-01-01T01:00:00</time>
      </trkpt>
      <trkpt lat="44.394158000" lon="6.918131000">
        <ele>1870.4</ele>
        <time>1970-01-01T01:00:00</time>
      </trkpt>
      <trkpt lat="44.394076000" lon="6.918061000">
        <ele>1870.4</ele>
        <time>1970-01-01T01:00:00</time>
      </trkpt>
      <trkpt lat="44.393431000" lon="6.917967000">
        <ele>1878.6</ele>
        <time>1970-01-01T01:00:00</time>
      </trkpt>
      <trkpt lat="44.393391000" lon="6.917848000">
        <ele>1879.5</ele>
        <time>1970-01-01T01:00:00</time>
      </trkpt>
      <trkpt lat="44.393437000" lon="6.917734000">
        <ele>1882.9</ele>
        <time>1970-01-01T01:00:00</time>
      </trkpt>
      <trkpt lat="44.393344000" lon="6.917611000">
        <ele>1885.3</ele>
        <time>1970-01-01T01:00:00</time>
      </trkpt>
      <trkpt lat="44.393239000" lon="6.917636000">
        <ele>1882.9</ele>
        <time>1970-01-01T01:00:00</time>
      </trkpt>
      <trkpt lat="44.393203000" lon="6.917598000">
        <ele>1884.3</ele>
        <time>1970-01-01T01:00:00</time>
      </trkpt>
      <trkpt lat="44.392945000" lon="6.917577000">
        <ele>1886.2</ele>
        <time>1970-01-01T01:00:00</time>
      </trkpt>
      <trkpt lat="44.392821000" lon="6.917523000">
        <ele>1886.7</ele>
        <time>1970-01-01T01:00:00</time>
      </trkpt>
      <trkpt lat="44.392560000" lon="6.917278000">
        <ele>1886.7</ele>
        <time>1970-01-01T01:00:00</time>
      </trkpt>
      <trkpt lat="44.392365000" lon="6.916955000">
        <ele>1888.2</ele>
        <time>1970-01-01T01:00:00</time>
      </trkpt>
      <trkpt lat="44.392087000" lon="6.916723000">
        <ele>1890.1</ele>
        <time>1970-01-01T01:00:00</time>
      </trkpt>
      <trkpt lat="44.392022000" lon="6.916566000">
        <ele>1892.5</ele>
        <time>1970-01-01T01:00:00</time>
      </trkpt>
      <trkpt lat="44.391412000" lon="6.916374000">
        <ele>1903.5</ele>
        <time>1970-01-01T01:00:00</time>
      </trkpt>
      <trkpt lat="44.391203000" lon="6.916186000">
        <ele>1905.5</ele>
        <time>1970-01-01T01:00:00</time>
      </trkpt>
      <trkpt lat="44.390918000" lon="6.916091000">
        <ele>1907.4</ele>
        <time>1970-01-01T01:00:00</time>
      </trkpt>
      <trkpt lat="44.390641000" lon="6.915953000">
        <ele>1907.9</ele>
        <time>1970-01-01T01:00:00</time>
      </trkpt>
      <trkpt lat="44.390498000" lon="6.915825000">
        <ele>1906.9</ele>
        <time>1970-01-01T01:00:00</time>
      </trkpt>
      <trkpt lat="44.390305000" lon="6.915634000">
        <ele>1911.7</ele>
        <time>1970-01-01T01:00:00</time>
      </trkpt>
      <trkpt lat="44.390091000" lon="6.915440000">
        <ele>1913.2</ele>
        <time>1970-01-01T01:00:00</time>
      </trkpt>
      <trkpt lat="44.389987000" lon="6.915421000">
        <ele>1915.1</ele>
        <time>1970-01-01T01:00:00</time>
      </trkpt>
      <trkpt lat="44.389890000" lon="6.915451000">
        <ele>1917.0</ele>
        <time>1970-01-01T01:00:00</time>
      </trkpt>
      <trkpt lat="44.389896000" lon="6.915397000">
        <ele>1917.0</ele>
        <time>1970-01-01T01:00:00</time>
      </trkpt>
      <trkpt lat="44.390055000" lon="6.915294000">
        <ele>1919.9</ele>
        <time>1970-01-01T01:00:00</time>
      </trkpt>
      <trkpt lat="44.389837000" lon="6.915301000">
        <ele>1925.2</ele>
        <time>1970-01-01T01:00:00</time>
      </trkpt>
      <trkpt lat="44.389767000" lon="6.915243000">
        <ele>1927.6</ele>
        <time>1970-01-01T01:00:00</time>
      </trkpt>
      <trkpt lat="44.389554000" lon="6.915153000">
        <ele>1930.0</ele>
        <time>1970-01-01T01:00:00</time>
      </trkpt>
      <trkpt lat="44.389361000" lon="6.914974000">
        <ele>1930.5</ele>
        <time>1970-01-01T01:00:00</time>
      </trkpt>
      <trkpt lat="44.389050000" lon="6.914211000">
        <ele>1941.0</ele>
        <time>1970-01-01T01:00:00</time>
      </trkpt>
      <trkpt lat="44.389013000" lon="6.914020000">
        <ele>1944.9</ele>
        <time>1970-01-01T01:00:00</time>
      </trkpt>
      <trkpt lat="44.389429000" lon="6.914049000">
        <ele>1956.4</ele>
        <time>1970-01-01T01:00:00</time>
      </trkpt>
      <trkpt lat="44.389408000" lon="6.913956000">
        <ele>1959.8</ele>
        <time>1970-01-01T01:00:00</time>
      </trkpt>
      <trkpt lat="44.389318000" lon="6.913672000">
        <ele>1965.6</ele>
        <time>1970-01-01T01:00:00</time>
      </trkpt>
      <trkpt lat="44.389281000" lon="6.913595000">
        <ele>1965.6</ele>
        <time>1970-01-01T01:00:00</time>
      </trkpt>
      <trkpt lat="44.389089000" lon="6.913444000">
        <ele>1968.4</ele>
        <time>1970-01-01T01:00:00</time>
      </trkpt>
      <trkpt lat="44.388940000" lon="6.913197000">
        <ele>1975.2</ele>
        <time>1970-01-01T01:00:00</time>
      </trkpt>
      <trkpt lat="44.388880000" lon="6.912987000">
        <ele>1980.9</ele>
        <time>1970-01-01T01:00:00</time>
      </trkpt>
      <trkpt lat="44.389041000" lon="6.912998000">
        <ele>1985.7</ele>
        <time>1970-01-01T01:00:00</time>
      </trkpt>
      <trkpt lat="44.389417000" lon="6.912938000">
        <ele>1997.3</ele>
        <time>1970-01-01T01:00:00</time>
      </trkpt>
      <trkpt lat="44.389718000" lon="6.912992000">
        <ele>2005.0</ele>
        <time>1970-01-01T01:00:00</time>
      </trkpt>
      <trkpt lat="44.389882000" lon="6.912892000">
        <ele>2011.2</ele>
        <time>1970-01-01T01:00:00</time>
      </trkpt>
      <trkpt lat="44.389932000" lon="6.912836000">
        <ele>2013.1</ele>
        <time>1970-01-01T01:00:00</time>
      </trkpt>
      <trkpt lat="44.389913000" lon="6.912797000">
        <ele>2011.2</ele>
        <time>1970-01-01T01:00:00</time>
      </trkpt>
      <trkpt lat="44.389937000" lon="6.912791000">
        <ele>2014.1</ele>
        <time>1970-01-01T01:00:00</time>
      </trkpt>
      <trkpt lat="44.389929000" lon="6.912804000">
        <ele>2012.7</ele>
        <time>1970-01-01T01:00:00</time>
      </trkpt>
      <trkpt lat="44.389890000" lon="6.912729000">
        <ele>2017.0</ele>
        <time>1970-01-01T01:00:00</time>
      </trkpt>
      <trkpt lat="44.389419000" lon="6.911673000">
        <ele>2034.3</ele>
        <time>1970-01-01T01:00:00</time>
      </trkpt>
      <trkpt lat="44.389129000" lon="6.911303000">
        <ele>2047.3</ele>
        <time>1970-01-01T01:00:00</time>
      </trkpt>
      <trkpt lat="44.389173000" lon="6.911037000">
        <ele>2054.0</ele>
        <time>1970-01-01T01:00:00</time>
      </trkpt>
      <trkpt lat="44.389127000" lon="6.910913000">
        <ele>2054.5</ele>
        <time>1970-01-01T01:00:00</time>
      </trkpt>
      <trkpt lat="44.389092000" lon="6.910830000">
        <ele>2057.8</ele>
        <time>1970-01-01T01:00:00</time>
      </trkpt>
      <trkpt lat="44.388879000" lon="6.910555000">
        <ele>2067.0</ele>
        <time>1970-01-01T01:00:00</time>
      </trkpt>
      <trkpt lat="44.388927000" lon="6.910365000">
        <ele>2069.4</ele>
        <time>1970-01-01T01:00:00</time>
      </trkpt>
      <trkpt lat="44.388974000" lon="6.910356000">
        <ele>2073.7</ele>
        <time>1970-01-01T01:00:00</time>
      </trkpt>
      <trkpt lat="44.389018000" lon="6.910319000">
        <ele>2074.2</ele>
        <time>1970-01-01T01:00:00</time>
      </trkpt>
      <trkpt lat="44.389182000" lon="6.910108000">
        <ele>2082.8</ele>
        <time>1970-01-01T01:00:00</time>
      </trkpt>
      <trkpt lat="44.389208000" lon="6.910011000">
        <ele>2085.2</ele>
        <time>1970-01-01T01:00:00</time>
      </trkpt>
      <trkpt lat="44.389136000" lon="6.909772000">
        <ele>2090.:</ele>
        <time>1970-01-01T01:00:00</time>
      </trkpt>
      <trkpt lat="44.388959000" lon="6.909594000">
        <ele>2095.3</ele>
        <time>1970-01-01T01:00:00</time>
      </trkpt>
      <trkpt lat="44.388676000" lon="6.909164000">
        <ele>2104.5</ele>
        <time>1970-01-01T01:00:00</time>
      </trkpt>
      <trkpt lat="44.388435000" lon="6.908892000">
        <ele>2113.6</ele>
        <time>1970-01-01T01:00:00</time>
      </trkpt>
      <trkpt lat="44.388292000" lon="6.908700000">
        <ele>2115.0</ele>
        <time>1970-01-01T01:00:00</time>
      </trkpt>
      <trkpt lat="44.387929000" lon="6.908081000">
        <ele>2126.6</ele>
        <time>1970-01-01T01:00:00</time>
      </trkpt>
      <trkpt lat="44.387612000" lon="6.907894000">
        <ele>2133.8</ele>
        <time>1970-01-01T01:00:00</time>
      </trkpt>
      <trkpt lat="44.387376000" lon="6.907632000">
        <ele>2140.0</ele>
        <time>1970-01-01T01:00:00</time>
      </trkpt>
      <trkpt lat="44.387265000" lon="6.907422000">
        <ele>2143.4</ele>
        <time>1970-01-01T01:00:00</time>
      </trkpt>
      <trkpt lat="44.387205000" lon="6.907184000">
        <ele>2146.8</ele>
        <time>1970-01-01T01:00:00</time>
      </trkpt>
      <trkpt lat="44.386975000" lon="6.906860000">
        <ele>2156.4</ele>
        <time>1970-01-01T01:00:00</time>
      </trkpt>
      <trkpt lat="44.386950000" lon="6.906568000">
        <ele>2162.1</ele>
        <time>1970-01-01T01:00:00</time>
      </trkpt>
      <trkpt lat="44.386776000" lon="6.906220000">
        <ele>2172.2</ele>
        <time>1970-01-01T01:00:00</time>
      </trkpt>
      <trkpt lat="44.386524000" lon="6.905967000">
        <ele>2180.4</ele>
        <time>1970-01-01T01:00:00</time>
      </trkpt>
      <trkpt lat="44.386391000" lon="6.905668000">
        <ele>2183.8</ele>
        <time>1970-01-01T01:00:00</time>
      </trkpt>
      <trkpt lat="44.386381000" lon="6.905647000">
        <ele>2186.7</ele>
        <time>1970-01-01T01:00:00</time>
      </trkpt>
      <trkpt lat="44.386369000" lon="6.905631000">
        <ele>2185.2</ele>
        <time>1970-01-01T01:00:00</time>
      </trkpt>
      <trkpt lat="44.386270000" lon="6.905510000">
        <ele>2188.6</ele>
        <time>1970-01-01T01:00:00</time>
      </trkpt>
      <trkpt lat="44.386230000" lon="6.905361000">
        <ele>2192.9</ele>
        <time>1970-01-01T01:00:00</time>
      </trkpt>
      <trkpt lat="44.386127000" lon="6.905340000">
        <ele>2193.9</ele>
        <time>1970-01-01T01:00:00</time>
      </trkpt>
      <trkpt lat="44.385959000" lon="6.905166000">
        <ele>2197.2</ele>
        <time>1970-01-01T01:00:00</time>
      </trkpt>
      <trkpt lat="44.385661000" lon="6.904731000">
        <ele>2203.0</ele>
        <time>1970-01-01T01:00:00</time>
      </trkpt>
      <trkpt lat="44.385545000" lon="6.904623000">
        <ele>2207.8</ele>
        <time>1970-01-01T01:00:00</time>
      </trkpt>
      <trkpt lat="44.385432000" lon="6.904403000">
        <ele>2210.2</ele>
        <time>1970-01-01T01:00:00</time>
      </trkpt>
      <trkpt lat="44.385340000" lon="6.903711000">
        <ele>2221.3</ele>
        <time>1970-01-01T01:00:00</time>
      </trkpt>
      <trkpt lat="44.385231000" lon="6.903426000">
        <ele>2224.1</ele>
        <time>1970-01-01T01:00:00</time>
      </trkpt>
      <trkpt lat="44.385148000" lon="6.903311000">
        <ele>2225.1</ele>
        <time>1970-01-01T01:00:00</time>
      </trkpt>
      <trkpt lat="44.385101000" lon="6.903167000">
        <ele>2228.0</ele>
        <time>1970-01-01T01:00:00</time>
      </trkpt>
      <trkpt lat="44.384892000" lon="6.903022000">
        <ele>2233.8</ele>
        <time>1970-01-01T01:00:00</time>
      </trkpt>
      <trkpt lat="44.384896000" lon="6.902783000">
        <ele>2235.2</ele>
        <time>1970-01-01T01:00:00</time>
      </trkpt>
      <trkpt lat="44.384830000" lon="6.902725000">
        <ele>2235.7</ele>
        <time>1970-01-01T01:00:00</time>
      </trkpt>
      <trkpt lat="44.384816000" lon="6.902766000">
        <ele>2235.7</ele>
        <time>1970-01-01T01:00:00</time>
      </trkpt>
      <trkpt lat="44.384719000" lon="6.902804000">
        <ele>2237.6</ele>
        <time>1970-01-01T01:00:00</time>
      </trkpt>
      <trkpt lat="44.384613000" lon="6.902656000">
        <ele>2241.0</ele>
        <time>1970-01-01T01:00:00</time>
      </trkpt>
      <trkpt lat="44.384395000" lon="6.902467000">
        <ele>2247.2</ele>
        <time>1970-01-01T01:00:00</time>
      </trkpt>
      <trkpt lat="44.383990000" lon="6.902200000">
        <ele>2258.3</ele>
        <time>1970-01-01T01:00:00</time>
      </trkpt>
      <trkpt lat="44.383530000" lon="6.901788000">
        <ele>2267.9</ele>
        <time>1970-01-01T01:00:00</time>
      </trkpt>
      <trkpt lat="44.383544000" lon="6.901782000">
        <ele>2269.8</ele>
        <time>1970-01-01T01:00:00</time>
      </trkpt>
      <trkpt lat="44.383362000" lon="6.901585000">
        <ele>2274.6</ele>
        <time>1970-01-01T01:00:00</time>
      </trkpt>
      <trkpt lat="44.383199000" lon="6.901488000">
        <ele>2279.9</ele>
        <time>1970-01-01T01:00:00</time>
      </trkpt>
      <trkpt lat="44.383156000" lon="6.901442000">
        <ele>2281.8</ele>
        <time>1970-01-01T01:00:00</time>
      </trkpt>
      <trkpt lat="44.383160000" lon="6.901345000">
        <ele>2284.7</ele>
        <time>1970-01-01T01:00:00</time>
      </trkpt>
      <trkpt lat="44.383039000" lon="6.901212000">
        <ele>2291.0</ele>
        <time>1970-01-01T01:00:00</time>
      </trkpt>
      <trkpt lat="44.382915000" lon="6.901253000">
        <ele>2295.3</ele>
        <time>1970-01-01T01:00:00</time>
      </trkpt>
      <trkpt lat="44.382876000" lon="6.901227000">
        <ele>2296.2</ele>
        <time>1970-01-01T01:00:00</time>
      </trkpt>
      <trkpt lat="44.382881000" lon="6.901049000">
        <ele>2300.6</ele>
        <time>1970-01-01T01:00:00</time>
      </trkpt>
      <trkpt lat="44.382840000" lon="6.901013000">
        <ele>2303.5</ele>
        <time>1970-01-01T01:00:00</time>
      </trkpt>
      <trkpt lat="44.382606000" lon="6.901030000">
        <ele>2311.6</ele>
        <time>1970-01-01T01:00:00</time>
      </trkpt>
      <trkpt lat="44.382517000" lon="6.901069000">
        <ele>2314.5</ele>
        <time>1970-01-01T01:00:00</time>
      </trkpt>
      <trkpt lat="44.382519000" lon="6.900886000">
        <ele>2319.3</ele>
        <time>1970-01-01T01:00:00</time>
      </trkpt>
      <trkpt lat="44.382545000" lon="6.900765000">
        <ele>2321.7</ele>
        <time>1970-01-01T01:00:00</time>
      </trkpt>
      <trkpt lat="44.382179000" lon="6.900847000">
        <ele>2333.3</ele>
        <time>1970-01-01T01:00:00</time>
      </trkpt>
      <trkpt lat="44.382084000" lon="6.900759000">
        <ele>2339.0</ele>
        <time>1970-01-01T01:00:00</time>
      </trkpt>
      <trkpt lat="44.382049000" lon="6.900581000">
        <ele>2344.8</ele>
        <time>1970-01-01T01:00:00</time>
      </trkpt>
      <trkpt lat="44.381946000" lon="6.900546000">
        <ele>2349.6</ele>
        <time>1970-01-01T01:00:00</time>
      </trkpt>
      <trkpt lat="44.381890000" lon="6.900546000">
        <ele>2352.0</ele>
        <time>1970-01-01T01:00:00</time>
      </trkpt>
      <trkpt lat="44.381661000" lon="6.900665000">
        <ele>2360.7</ele>
        <time>1970-01-01T01:00:00</time>
      </trkpt>
      <trkpt lat="44.381572000" lon="6.900762000">
        <ele>2364.5</ele>
        <time>1970-01-01T01:00:00</time>
      </trkpt>
      <trkpt lat="44.381551000" lon="6.900756000">
        <ele>2365.0</ele>
        <time>1970-01-01T01:00:00</time>
      </trkpt>
      <trkpt lat="44.381569000" lon="6.900746000">
        <ele>2365.9</ele>
        <time>1970-01-01T01:00:00</time>
      </trkpt>
      <trkpt lat="44.381513000" lon="6.900632000">
        <ele>2370.7</ele>
        <time>1970-01-01T01:00:00</time>
      </trkpt>
      <trkpt lat="44.381403000" lon="6.900805000">
        <ele>2374.6</ele>
        <time>1970-01-01T01:00:00</time>
      </trkpt>
      <trkpt lat="44.381340000" lon="6.901014000">
        <ele>2376.5</ele>
        <time>1970-01-01T01:00:00</time>
      </trkpt>
      <trkpt lat="44.381287000" lon="6.901022000">
        <ele>2379.4</ele>
        <time>1970-01-01T01:00:00</time>
      </trkpt>
      <trkpt lat="44.381210000" lon="6.901341000">
        <ele>2386.1</ele>
        <time>1970-01-01T01:00:00</time>
      </trkpt>
      <trkpt lat="44.381091000" lon="6.901333000">
        <ele>2389.5</ele>
        <time>1970-01-01T01:00:00</time>
      </trkpt>
      <trkpt lat="44.381019000" lon="6.901445000">
        <ele>2393.8</ele>
        <time>1970-01-01T01:00:00</time>
      </trkpt>
      <trkpt lat="44.380972000" lon="6.901609000">
        <ele>2398.1</ele>
        <time>1970-01-01T01:00:00</time>
      </trkpt>
      <trkpt lat="44.380793000" lon="6.901695000">
        <ele>2403.0</ele>
        <time>1970-01-01T01:00:00</time>
      </trkpt>
      <trkpt lat="44.380756000" lon="6.901781000">
        <ele>2403.4</ele>
        <time>1970-01-01T01:00:00</time>
      </trkpt>
      <trkpt lat="44.380633000" lon="6.901874000">
        <ele>2408.2</ele>
        <time>1970-01-01T01:00:00</time>
      </trkpt>
      <trkpt lat="44.380557000" lon="6.901852000">
        <ele>2411.1</ele>
        <time>1970-01-01T01:00:00</time>
      </trkpt>
      <trkpt lat="44.380499000" lon="6.901711000">
        <ele>2415.0</ele>
        <time>1970-01-01T01:00:00</time>
      </trkpt>
      <trkpt lat="44.380323000" lon="6.901749000">
        <ele>2421.7</ele>
        <time>1970-01-01T01:00:00</time>
      </trkpt>
      <trkpt lat="44.380096000" lon="6.901720000">
        <ele>2428.9</ele>
        <time>1970-01-01T01:00:00</time>
      </trkpt>
      <trkpt lat="44.379823000" lon="6.901599000">
        <ele>2436.1</ele>
        <time>1970-01-01T01:00:00</time>
      </trkpt>
      <trkpt lat="44.379690000" lon="6.901456000">
        <ele>2439.0</ele>
        <time>1970-01-01T01:00:00</time>
      </trkpt>
      <trkpt lat="44.379627000" lon="6.901434000">
        <ele>2441.9</ele>
        <time>1970-01-01T01:00:00</time>
      </trkpt>
      <trkpt lat="44.379478000" lon="6.901487000">
        <ele>2444.8</ele>
        <time>1970-01-01T01:00:00</time>
      </trkpt>
      <trkpt lat="44.379413000" lon="6.901480000">
        <ele>2448.6</ele>
        <time>1970-01-01T01:00:00</time>
      </trkpt>
      <trkpt lat="44.379356000" lon="6.901448000">
        <ele>2449.6</ele>
        <time>1970-01-01T01:00:00</time>
      </trkpt>
      <trkpt lat="44.379371000" lon="6.901299000">
        <ele>2453.4</ele>
        <time>1970-01-01T01:00:00</time>
      </trkpt>
      <trkpt lat="44.379354000" lon="6.901207000">
        <ele>2456.8</ele>
        <time>1970-01-01T01:00:00</time>
      </trkpt>
      <trkpt lat="44.379199000" lon="6.901252000">
        <ele>2458.2</ele>
        <time>1970-01-01T01:00:00</time>
      </trkpt>
      <trkpt lat="44.378951000" lon="6.901326000">
        <ele>2466.9</ele>
        <time>1970-01-01T01:00:00</time>
      </trkpt>
      <trkpt lat="44.378897000" lon="6.901304000">
        <ele>2468.3</ele>
        <time>1970-01-01T01:00:00</time>
      </trkpt>
      <trkpt lat="44.378895000" lon="6.901078000">
        <ele>2472.2</ele>
        <time>1970-01-01T01:00:00</time>
      </trkpt>
      <trkpt lat="44.378797000" lon="6.900911000">
        <ele>2479.4</ele>
        <time>1970-01-01T01:00:00</time>
      </trkpt>
      <trkpt lat="44.378742000" lon="6.900869000">
        <ele>2481.3</ele>
        <time>1970-01-01T01:00:00</time>
      </trkpt>
      <trkpt lat="44.378478000" lon="6.900882000">
        <ele>2489.5</ele>
        <time>1970-01-01T01:00:00</time>
      </trkpt>
      <trkpt lat="44.378332000" lon="6.900846000">
        <ele>2493.8</ele>
        <time>1970-01-01T01:00:00</time>
      </trkpt>
      <trkpt lat="44.377984000" lon="6.900870000">
        <ele>2499.1</ele>
        <time>1970-01-01T01:00:00</time>
      </trkpt>
      <trkpt lat="44.377886000" lon="6.900848000">
        <ele>2501.5</ele>
        <time>1970-01-01T01:00:00</time>
      </trkpt>
      <trkpt lat="44.377612000" lon="6.900897000">
        <ele>2510.6</ele>
        <time>1970-01-01T01:00:00</time>
      </trkpt>
      <trkpt lat="44.377470000" lon="6.900860000">
        <ele>2514.0</ele>
        <time>1970-01-01T01:00:00</time>
      </trkpt>
      <trkpt lat="44.377355000" lon="6.901102000">
        <ele>2519.8</ele>
        <time>1970-01-01T01:00:00</time>
      </trkpt>
      <trkpt lat="44.377306000" lon="6.901055000">
        <ele>2523.6</ele>
        <time>1970-01-01T01:00:00</time>
      </trkpt>
      <trkpt lat="44.377233000" lon="6.900884000">
        <ele>2527.9</ele>
        <time>1970-01-01T01:00:00</time>
      </trkpt>
      <trkpt lat="44.377151000" lon="6.901162000">
        <ele>2535.1</ele>
        <time>1970-01-01T01:00:00</time>
      </trkpt>
      <trkpt lat="44.377043000" lon="6.900948000">
        <ele>2540.4</ele>
        <time>1970-01-01T01:00:00</time>
      </trkpt>
      <trkpt lat="44.377033000" lon="6.900850000">
        <ele>2543.3</ele>
        <time>1970-01-01T01:00:00</time>
      </trkpt>
      <trkpt lat="44.376932000" lon="6.901044000">
        <ele>2548.1</ele>
        <time>1970-01-01T01:00:00</time>
      </trkpt>
      <trkpt lat="44.376908000" lon="6.901190000">
        <ele>2552.4</ele>
        <time>1970-01-01T01:00:00</time>
      </trkpt>
      <trkpt lat="44.376831000" lon="6.901060000">
        <ele>2555.8</ele>
        <time>1970-01-01T01:00:00</time>
      </trkpt>
      <trkpt lat="44.376818000" lon="6.901240000">
        <ele>2559.6</ele>
        <time>1970-01-01T01:00:00</time>
      </trkpt>
      <trkpt lat="44.376707000" lon="6.901063000">
        <ele>2564.9</ele>
        <time>1970-01-01T01:00:00</time>
      </trkpt>
      <trkpt lat="44.376672000" lon="6.900939000">
        <ele>2568.8</ele>
        <time>1970-01-01T01:00:00</time>
      </trkpt>
      <trkpt lat="44.376674000" lon="6.900842000">
        <ele>2570.2</ele>
        <time>1970-01-01T01:00:00</time>
      </trkpt>
      <trkpt lat="44.376532000" lon="6.901063000">
        <ele>2576.0</ele>
        <time>1970-01-01T01:00:00</time>
      </trkpt>
      <trkpt lat="44.376548000" lon="6.900766000">
        <ele>2581.8</ele>
        <time>1970-01-01T01:00:00</time>
      </trkpt>
      <trkpt lat="44.376511000" lon="6.900642000">
        <ele>2585.1</ele>
        <time>1970-01-01T01:00:00</time>
      </trkpt>
      <trkpt lat="44.376325000" lon="6.900896000">
        <ele>2592.8</ele>
        <time>1970-01-01T01:00:00</time>
      </trkpt>
      <trkpt lat="44.376282000" lon="6.900635000">
        <ele>2600.5</ele>
        <time>1970-01-01T01:00:00</time>
      </trkpt>
      <trkpt lat="44.376073000" lon="6.900680000">
        <ele>2604.3</ele>
        <time>1970-01-01T01:00:00</time>
      </trkpt>
      <trkpt lat="44.375971000" lon="6.900618000">
        <ele>2608.2</ele>
        <time>1970-01-01T01:00:00</time>
      </trkpt>
      <trkpt lat="44.375979000" lon="6.900570000">
        <ele>2607.2</ele>
        <time>1970-01-01T01:00:00</time>
      </trkpt>
      <trkpt lat="44.375973000" lon="6.900582000">
        <ele>2608.7</ele>
        <time>1970-01-01T01:00:00</time>
      </trkpt>
      <trkpt lat="44.376055000" lon="6.900466000">
        <ele>2613.5</ele>
        <time>1970-01-01T01:00:00</time>
      </trkpt>
      <trkpt lat="44.376091000" lon="6.900373000">
        <ele>2616.4</ele>
        <time>1970-01-01T01:00:00</time>
      </trkpt>
      <trkpt lat="44.375995000" lon="6.900354000">
        <ele>2619.2</ele>
        <time>1970-01-01T01:00:00</time>
      </trkpt>
      <trkpt lat="44.375990000" lon="6.900336000">
        <ele>2620.7</ele>
        <time>1970-01-01T01:00:00</time>
      </trkpt>
      <trkpt lat="44.376062000" lon="6.899770000">
        <ele>2635.6</ele>
        <time>1970-01-01T01:00:00</time>
      </trkpt>
      <trkpt lat="44.376140000" lon="6.899488000">
        <ele>2639.9</ele>
        <time>1970-01-01T01:00:00</time>
      </trkpt>
      <trkpt lat="44.376114000" lon="6.899390000">
        <ele>2643.3</ele>
        <time>1970-01-01T01:00:00</time>
      </trkpt>
      <trkpt lat="44.375807000" lon="6.899325000">
        <ele>2651.0</ele>
        <time>1970-01-01T01:00:00</time>
      </trkpt>
      <trkpt lat="44.375721000" lon="6.899345000">
        <ele>2652.9</ele>
        <time>1970-01-01T01:00:00</time>
      </trkpt>
      <trkpt lat="44.375601000" lon="6.899281000">
        <ele>2659.1</ele>
        <time>1970-01-01T01:00:00</time>
      </trkpt>
      <trkpt lat="44.375521000" lon="6.899209000">
        <ele>2661.1</ele>
        <time>1970-01-01T01:00:00</time>
      </trkpt>
      <trkpt lat="44.375330000" lon="6.898584000">
        <ele>2668.3</ele>
        <time>1970-01-01T01:00:00</time>
      </trkpt>
      <trkpt lat="44.375340000" lon="6.898294000">
        <ele>2673.6</ele>
        <time>1970-01-01T01:00:00</time>
      </trkpt>
      <trkpt lat="44.375382000" lon="6.898148000">
        <ele>2673.6</ele>
        <time>1970-01-01T01:00:00</time>
      </trkpt>
      <trkpt lat="44.375451000" lon="6.898112000">
        <ele>2673.1</ele>
        <time>1970-01-01T01:00:00</time>
      </trkpt>
      <trkpt lat="44.375541000" lon="6.898025000">
        <ele>2677.4</ele>
        <time>1970-01-01T01:00:00</time>
      </trkpt>
      <trkpt lat="44.375423000" lon="6.898005000">
        <ele>2683.7</ele>
        <time>1970-01-01T01:00:00</time>
      </trkpt>
      <trkpt lat="44.375393000" lon="6.897969000">
        <ele>2684.1</ele>
        <time>1970-01-01T01:00:00</time>
      </trkpt>
      <trkpt lat="44.375512000" lon="6.897742000">
        <ele>2694.7</ele>
        <time>1970-01-01T01:00:00</time>
      </trkpt>
      <trkpt lat="44.375522000" lon="6.897612000">
        <ele>2699.5</ele>
        <time>1970-01-01T01:00:00</time>
      </trkpt>
      <trkpt lat="44.375476000" lon="6.897470000">
        <ele>2707.2</ele>
        <time>1970-01-01T01:00:00</time>
      </trkpt>
      <trkpt lat="44.375471000" lon="6.897446000">
        <ele>2710.6</ele>
        <time>1970-01-01T01:00:00</time>
      </trkpt>
      <trkpt lat="44.375508000" lon="6.897354000">
        <ele>2714.4</ele>
        <time>1970-01-01T01:00:00</time>
      </trkpt>
      <trkpt lat="44.375490000" lon="6.897333000">
        <ele>2717.3</ele>
        <time>1970-01-01T01:00:00</time>
      </trkpt>
      <trkpt lat="44.375585000" lon="6.897071000">
        <ele>2723.6</ele>
        <time>1970-01-01T01:00:00</time>
      </trkpt>
      <trkpt lat="44.375579000" lon="6.896890000">
        <ele>2729.3</ele>
        <time>1970-01-01T01:00:00</time>
      </trkpt>
      <trkpt lat="44.375526000" lon="6.896803000">
        <ele>2731.2</ele>
        <time>1970-01-01T01:00:00</time>
      </trkpt>
      <trkpt lat="44.375554000" lon="6.896776000">
        <ele>2731.2</ele>
        <time>1970-01-01T01:00:00</time>
      </trkpt>
      <trkpt lat="44.375573000" lon="6.896847000">
        <ele>2728.8</ele>
        <time>1970-01-01T01:00:00</time>
      </trkpt>
      <trkpt lat="44.375548000" lon="6.896946000">
        <ele>2727.9</ele>
        <time>1970-01-01T01:00:00</time>
      </trkpt>
      <trkpt lat="44.375576000" lon="6.897088000">
        <ele>2722.1</ele>
        <time>1970-01-01T01:00:00</time>
      </trkpt>
      <trkpt lat="44.375530000" lon="6.897227000">
        <ele>2722.1</ele>
        <time>1970-01-01T01:00:00</time>
      </trkpt>
      <trkpt lat="44.375496000" lon="6.897329000">
        <ele>2717.8</ele>
        <time>1970-01-01T01:00:00</time>
      </trkpt>
      <trkpt lat="44.375478000" lon="6.897415000">
        <ele>2709.1</ele>
        <time>1970-01-01T01:00:00</time>
      </trkpt>
      <trkpt lat="44.375454000" lon="6.897500000">
        <ele>2708.7</ele>
        <time>1970-01-01T01:00:00</time>
      </trkpt>
      <trkpt lat="44.375438000" lon="6.897596000">
        <ele>2703.4</ele>
        <time>1970-01-01T01:00:00</time>
      </trkpt>
      <trkpt lat="44.375382000" lon="6.897686000">
        <ele>2696.2</ele>
        <time>1970-01-01T01:00:00</time>
      </trkpt>
      <trkpt lat="44.375389000" lon="6.897854000">
        <ele>2689.4</ele>
        <time>1970-01-01T01:00:00</time>
      </trkpt>
      <trkpt lat="44.375372000" lon="6.897942000">
        <ele>2687.0</ele>
        <time>1970-01-01T01:00:00</time>
      </trkpt>
      <trkpt lat="44.375342000" lon="6.897971000">
        <ele>2683.7</ele>
        <time>1970-01-01T01:00:00</time>
      </trkpt>
      <trkpt lat="44.375416000" lon="6.898020000">
        <ele>2679.8</ele>
        <time>1970-01-01T01:00:00</time>
      </trkpt>
      <trkpt lat="44.375510000" lon="6.898036000">
        <ele>2677.4</ele>
        <time>1970-01-01T01:00:00</time>
      </trkpt>
      <trkpt lat="44.375443000" lon="6.898118000">
        <ele>2674.5</ele>
        <time>1970-01-01T01:00:00</time>
      </trkpt>
      <trkpt lat="44.375365000" lon="6.898172000">
        <ele>2675.5</ele>
        <time>1970-01-01T01:00:00</time>
      </trkpt>
      <trkpt lat="44.375359000" lon="6.898155000">
        <ele>2672.6</ele>
        <time>1970-01-01T01:00:00</time>
      </trkpt>
      <trkpt lat="44.375369000" lon="6.898151000">
        <ele>2675.0</ele>
        <time>1970-01-01T01:00:00</time>
      </trkpt>
      <trkpt lat="44.375366000" lon="6.898147000">
        <ele>2667.3</ele>
        <time>1970-01-01T01:00:00</time>
      </trkpt>
      <trkpt lat="44.375375000" lon="6.898163000">
        <ele>2677.4</ele>
        <time>1970-01-01T01:00:00</time>
      </trkpt>
      <trkpt lat="44.375333000" lon="6.898294000">
        <ele>2674.5</ele>
        <time>1970-01-01T01:00:00</time>
      </trkpt>
      <trkpt lat="44.375314000" lon="6.898519000">
        <ele>2671.2</ele>
        <time>1970-01-01T01:00:00</time>
      </trkpt>
      <trkpt lat="44.375364000" lon="6.898702000">
        <ele>2667.3</ele>
        <time>1970-01-01T01:00:00</time>
      </trkpt>
      <trkpt lat="44.375476000" lon="6.899043000">
        <ele>2664.0</ele>
        <time>1970-01-01T01:00:00</time>
      </trkpt>
      <trkpt lat="44.375530000" lon="6.899077000">
        <ele>2662.0</ele>
        <time>1970-01-01T01:00:00</time>
      </trkpt>
      <trkpt lat="44.375693000" lon="6.899015000">
        <ele>2652.9</ele>
        <time>1970-01-01T01:00:00</time>
      </trkpt>
      <trkpt lat="44.375820000" lon="6.899107000">
        <ele>2651.0</ele>
        <time>1970-01-01T01:00:00</time>
      </trkpt>
      <trkpt lat="44.375962000" lon="6.899368000">
        <ele>2646.2</ele>
        <time>1970-01-01T01:00:00</time>
      </trkpt>
      <trkpt lat="44.376069000" lon="6.899320000">
        <ele>2643.8</ele>
        <time>1970-01-01T01:00:00</time>
      </trkpt>
      <trkpt lat="44.376144000" lon="6.899253000">
        <ele>2643.8</ele>
        <time>1970-01-01T01:00:00</time>
      </trkpt>
      <trkpt lat="44.376170000" lon="6.899356000">
        <ele>2641.4</ele>
        <time>1970-01-01T01:00:00</time>
      </trkpt>
      <trkpt lat="44.376066000" lon="6.899685000">
        <ele>2637.5</ele>
        <time>1970-01-01T01:00:00</time>
      </trkpt>
      <trkpt lat="44.375938000" lon="6.900148000">
        <ele>2628.4</ele>
        <time>1970-01-01T01:00:00</time>
      </trkpt>
      <trkpt lat="44.376015000" lon="6.900169000">
        <ele>2625.0</ele>
        <time>1970-01-01T01:00:00</time>
      </trkpt>
      <trkpt lat="44.376094000" lon="6.900388000">
        <ele>2612.5</ele>
        <time>1970-01-01T01:00:00</time>
      </trkpt>
      <trkpt lat="44.375967000" lon="6.900589000">
        <ele>2607.2</ele>
        <time>1970-01-01T01:00:00</time>
      </trkpt>
      <trkpt lat="44.375985000" lon="6.900607000">
        <ele>2606.8</ele>
        <time>1970-01-01T01:00:00</time>
      </trkpt>
      <trkpt lat="44.375966000" lon="6.900612000">
        <ele>2607.7</ele>
        <time>1970-01-01T01:00:00</time>
      </trkpt>
      <trkpt lat="44.376026000" lon="6.900650000">
        <ele>2605.3</ele>
        <time>1970-01-01T01:00:00</time>
      </trkpt>
      <trkpt lat="44.376203000" lon="6.900620000">
        <ele>2600.:</ele>
        <time>1970-01-01T01:00:00</time>
      </trkpt>
      <trkpt lat="44.376253000" lon="6.900553000">
        <ele>2600.0</ele>
        <time>1970-01-01T01:00:00</time>
      </trkpt>
      <trkpt lat="44.376298000" lon="6.900684000">
        <ele>2597.1</ele>
        <time>1970-01-01T01:00:00</time>
      </trkpt>
      <trkpt lat="44.376299000" lon="6.900865000">
        <ele>2593.3</ele>
        <time>1970-01-01T01:00:00</time>
      </trkpt>
      <trkpt lat="44.376425000" lon="6.900761000">
        <ele>2588.0</ele>
        <time>1970-01-01T01:00:00</time>
      </trkpt>
      <trkpt lat="44.376508000" lon="6.900645000">
        <ele>2584.2</ele>
        <time>1970-01-01T01:00:00</time>
      </trkpt>
      <trkpt lat="44.376539000" lon="6.900717000">
        <ele>2582.7</ele>
        <time>1970-01-01T01:00:00</time>
      </trkpt>
      <trkpt lat="44.376574000" lon="6.901039000">
        <ele>2574.5</ele>
        <time>1970-01-01T01:00:00</time>
      </trkpt>
      <trkpt lat="44.376619000" lon="6.900981000">
        <ele>2570.7</ele>
        <time>1970-01-01T01:00:00</time>
      </trkpt>
      <trkpt lat="44.376761000" lon="6.900724000">
        <ele>2564.9</ele>
        <time>1970-01-01T01:00:00</time>
      </trkpt>
      <trkpt lat="44.376841000" lon="6.900733000">
        <ele>2559.2</ele>
        <time>1970-01-01T01:00:00</time>
      </trkpt>
      <trkpt lat="44.376877000" lon="6.900700000">
        <ele>2557.7</ele>
        <time>1970-01-01T01:00:00</time>
      </trkpt>
      <trkpt lat="44.376921000" lon="6.900791000">
        <ele>2553.9</ele>
        <time>1970-01-01T01:00:00</time>
      </trkpt>
      <trkpt lat="44.377022000" lon="6.900857000">
        <ele>2544.7</ele>
        <time>1970-01-01T01:00:00</time>
      </trkpt>
      <trkpt lat="44.377089000" lon="6.900852000">
        <ele>2539.9</ele>
        <time>1970-01-01T01:00:00</time>
      </trkpt>
      <trkpt lat="44.377126000" lon="6.900950000">
        <ele>2535.6</ele>
        <time>1970-01-01T01:00:00</time>
      </trkpt>
      <trkpt lat="44.377201000" lon="6.900772000">
        <ele>2530.8</ele>
        <time>1970-01-01T01:00:00</time>
      </trkpt>
      <trkpt lat="44.377257000" lon="6.900822000">
        <ele>2526.0</ele>
        <time>1970-01-01T01:00:00</time>
      </trkpt>
      <trkpt lat="44.377293000" lon="6.900937000">
        <ele>2523.1</ele>
        <time>1970-01-01T01:00:00</time>
      </trkpt>
      <trkpt lat="44.377398000" lon="6.900939000">
        <ele>2519.8</ele>
        <time>1970-01-01T01:00:00</time>
      </trkpt>
      <trkpt lat="44.377465000" lon="6.900988000">
        <ele>2516.4</ele>
        <time>1970-01-01T01:00:00</time>
      </trkpt>
      <trkpt lat="44.377536000" lon="6.900911000">
        <ele>2512.5</ele>
        <time>1970-01-01T01:00:00</time>
      </trkpt>
      <trkpt lat="44.377560000" lon="6.900840000">
        <ele>2511.1</ele>
        <time>1970-01-01T01:00:00</time>
      </trkpt>
      <trkpt lat="44.377738000" lon="6.901206000">
        <ele>2505.3</ele>
        <time>1970-01-01T01:00:00</time>
      </trkpt>
      <trkpt lat="44.377906000" lon="6.901419000">
        <ele>2500.0</ele>
        <time>1970-01-01T01:00:00</time>
      </trkpt>
      <trkpt lat="44.378206000" lon="6.901487000">
        <ele>2492.4</ele>
        <time>1970-01-01T01:00:00</time>
      </trkpt>
      <trkpt lat="44.378359000" lon="6.901549000">
        <ele>2484.7</ele>
        <time>1970-01-01T01:00:00</time>
      </trkpt>
      <trkpt lat="44.378459000" lon="6.901493000">
        <ele>2479.9</ele>
        <time>1970-01-01T01:00:00</time>
      </trkpt>
      <trkpt lat="44.378455000" lon="6.901598000">
        <ele>2478.4</ele>
        <time>1970-01-01T01:00:00</time>
      </trkpt>
      <trkpt lat="44.378532000" lon="6.901635000">
        <ele>2473.6</ele>
        <time>1970-01-01T01:00:00</time>
      </trkpt>
      <trkpt lat="44.378800000" lon="6.901454000">
        <ele>2465.9</ele>
        <time>1970-01-01T01:00:00</time>
      </trkpt>
      <trkpt lat="44.378869000" lon="6.901721000">
        <ele>2460.6</ele>
        <time>1970-01-01T01:00:00</time>
      </trkpt>
      <trkpt lat="44.379155000" lon="6.901880000">
        <ele>2452.5</ele>
        <time>1970-01-01T01:00:00</time>
      </trkpt>
      <trkpt lat="44.379227000" lon="6.901804000">
        <ele>2448.6</ele>
        <time>1970-01-01T01:00:00</time>
      </trkpt>
      <trkpt lat="44.379343000" lon="6.901816000">
        <ele>2442.4</ele>
        <time>1970-01-01T01:00:00</time>
      </trkpt>
      <trkpt lat="44.379452000" lon="6.901753000">
        <ele>2438.5</ele>
        <time>1970-01-01T01:00:00</time>
      </trkpt>
      <trkpt lat="44.379534000" lon="6.901794000">
        <ele>2435.2</ele>
        <time>1970-01-01T01:00:00</time>
      </trkpt>
      <trkpt lat="44.379571000" lon="6.901859000">
        <ele>2431.3</ele>
        <time>1970-01-01T01:00:00</time>
      </trkpt>
      <trkpt lat="44.379718000" lon="6.901925000">
        <ele>2428.4</ele>
        <time>1970-01-01T01:00:00</time>
      </trkpt>
      <trkpt lat="44.379957000" lon="6.901932000">
        <ele>2422.2</ele>
        <time>1970-01-01T01:00:00</time>
      </trkpt>
      <trkpt lat="44.380201000" lon="6.901994000">
        <ele>2415.4</ele>
        <time>1970-01-01T01:00:00</time>
      </trkpt>
      <trkpt lat="44.380525000" lon="6.901935000">
        <ele>2408.7</ele>
        <time>1970-01-01T01:00:00</time>
      </trkpt>
      <trkpt lat="44.380702000" lon="6.901695000">
        <ele>2404.9</ele>
        <time>1970-01-01T01:00:00</time>
      </trkpt>
      <trkpt lat="44.380968000" lon="6.901502000">
        <ele>2394.8</ele>
        <time>1970-01-01T01:00:00</time>
      </trkpt>
      <trkpt lat="44.380985000" lon="6.901392000">
        <ele>2394.3</ele>
        <time>1970-01-01T01:00:00</time>
      </trkpt>
      <trkpt lat="44.381103000" lon="6.901280000">
        <ele>2388.1</ele>
        <time>1970-01-01T01:00:00</time>
      </trkpt>
      <trkpt lat="44.381212000" lon="6.901266000">
        <ele>2383.7</ele>
        <time>1970-01-01T01:00:00</time>
      </trkpt>
      <trkpt lat="44.381263000" lon="6.901221000">
        <ele>2382.3</ele>
        <time>1970-01-01T01:00:00</time>
      </trkpt>
      <trkpt lat="44.381267000" lon="6.901158000">
        <ele>2379.4</ele>
        <time>1970-01-01T01:00:00</time>
      </trkpt>
      <trkpt lat="44.381308000" lon="6.901110000">
        <ele>2377.5</ele>
        <time>1970-01-01T01:00:00</time>
      </trkpt>
      <trkpt lat="44.381464000" lon="6.900583000">
        <ele>2370.7</ele>
        <time>1970-01-01T01:00:00</time>
      </trkpt>
      <trkpt lat="44.381723000" lon="6.900202000">
        <ele>2365.0</ele>
        <time>1970-01-01T01:00:00</time>
      </trkpt>
      <trkpt lat="44.381960000" lon="6.900514000">
        <ele>2352.0</ele>
        <time>1970-01-01T01:00:00</time>
      </trkpt>
      <trkpt lat="44.382059000" lon="6.900588000">
        <ele>2345.3</ele>
        <time>1970-01-01T01:00:00</time>
      </trkpt>
      <trkpt lat="44.382414000" lon="6.900461000">
        <ele>2338.1</ele>
        <time>1970-01-01T01:00:00</time>
      </trkpt>
      <trkpt lat="44.382452000" lon="6.900577000">
        <ele>2333.3</ele>
        <time>1970-01-01T01:00:00</time>
      </trkpt>
      <trkpt lat="44.382531000" lon="6.900675000">
        <ele>2325.6</ele>
        <time>1970-01-01T01:00:00</time>
      </trkpt>
      <trkpt lat="44.382686000" lon="6.900745000">
        <ele>2319.8</ele>
        <time>1970-01-01T01:00:00</time>
      </trkpt>
      <trkpt lat="44.382819000" lon="6.900911000">
        <ele>2309.2</ele>
        <time>1970-01-01T01:00:00</time>
      </trkpt>
      <trkpt lat="44.382869000" lon="6.900893000">
        <ele>2306.3</ele>
        <time>1970-01-01T01:00:00</time>
      </trkpt>
      <trkpt lat="44.382784000" lon="6.901079000">
        <ele>2304.4</ele>
        <time>1970-01-01T01:00:00</time>
      </trkpt>
      <trkpt lat="44.382746000" lon="6.901466000">
        <ele>2299.6</ele>
        <time>1970-01-01T01:00:00</time>
      </trkpt>
      <trkpt lat="44.382839000" lon="6.901601000">
        <ele>2294.8</ele>
        <time>1970-01-01T01:00:00</time>
      </trkpt>
      <trkpt lat="44.383092000" lon="6.901618000">
        <ele>2282.3</ele>
        <time>1970-01-01T01:00:00</time>
      </trkpt>
      <trkpt lat="44.383346000" lon="6.901560000">
        <ele>2276.1</ele>
        <time>1970-01-01T01:00:00</time>
      </trkpt>
      <trkpt lat="44.383774000" lon="6.901814000">
        <ele>2270.8</ele>
        <time>1970-01-01T01:00:00</time>
      </trkpt>
      <trkpt lat="44.383820000" lon="6.902060000">
        <ele>2264.0</ele>
        <time>1970-01-01T01:00:00</time>
      </trkpt>
      <trkpt lat="44.383817000" lon="6.902261000">
        <ele>2260.7</ele>
        <time>1970-01-01T01:00:00</time>
      </trkpt>
      <trkpt lat="44.383835000" lon="6.902325000">
        <ele>2256.8</ele>
        <time>1970-01-01T01:00:00</time>
      </trkpt>
      <trkpt lat="44.383836000" lon="6.902469000">
        <ele>2255.9</ele>
        <time>1970-01-01T01:00:00</time>
      </trkpt>
      <trkpt lat="44.383834000" lon="6.902540000">
        <ele>2252.0</ele>
        <time>1970-01-01T01:00:00</time>
      </trkpt>
      <trkpt lat="44.383950000" lon="6.903042000">
        <ele>2238.1</ele>
        <time>1970-01-01T01:00:00</time>
      </trkpt>
      <trkpt lat="44.384117000" lon="6.903268000">
        <ele>2230.9</ele>
        <time>1970-01-01T01:00:00</time>
      </trkpt>
      <trkpt lat="44.384390000" lon="6.903430000">
        <ele>2224.6</ele>
        <time>1970-01-01T01:00:00</time>
      </trkpt>
      <trkpt lat="44.384490000" lon="6.903468000">
        <ele>2222.7</ele>
        <time>1970-01-01T01:00:00</time>
      </trkpt>
      <trkpt lat="44.384630000" lon="6.903442000">
        <ele>2222.2</ele>
        <time>1970-01-01T01:00:00</time>
      </trkpt>
      <trkpt lat="44.384604000" lon="6.903572000">
        <ele>2220.3</ele>
        <time>1970-01-01T01:00:00</time>
      </trkpt>
      <trkpt lat="44.384600000" lon="6.903757000">
        <ele>2214.5</ele>
        <time>1970-01-01T01:00:00</time>
      </trkpt>
      <trkpt lat="44.384723000" lon="6.903702000">
        <ele>2212.1</ele>
        <time>1970-01-01T01:00:00</time>
      </trkpt>
      <trkpt lat="44.384985000" lon="6.904018000">
        <ele>2209.2</ele>
        <time>1970-01-01T01:00:00</time>
      </trkpt>
      <trkpt lat="44.385062000" lon="6.904223000">
        <ele>2208.3</ele>
        <time>1970-01-01T01:00:00</time>
      </trkpt>
      <trkpt lat="44.385184000" lon="6.904415000">
        <ele>2204.4</ele>
        <time>1970-01-01T01:00:00</time>
      </trkpt>
      <trkpt lat="44.385417000" lon="6.904852000">
        <ele>2202.0</ele>
        <time>1970-01-01T01:00:00</time>
      </trkpt>
      <trkpt lat="44.385584000" lon="6.904980000">
        <ele>2197.7</ele>
        <time>1970-01-01T01:00:00</time>
      </trkpt>
      <trkpt lat="44.385773000" lon="6.905216000">
        <ele>2196.7</ele>
        <time>1970-01-01T01:00:00</time>
      </trkpt>
      <trkpt lat="44.386288000" lon="6.905439000">
        <ele>2190.0</ele>
        <time>1970-01-01T01:00:00</time>
      </trkpt>
      <trkpt lat="44.386597000" lon="6.905862000">
        <ele>2182.8</ele>
        <time>1970-01-01T01:00:00</time>
      </trkpt>
      <trkpt lat="44.386633000" lon="6.906019000">
        <ele>2176.6</ele>
        <time>1970-01-01T01:00:00</time>
      </trkpt>
      <trkpt lat="44.386635000" lon="6.906385000">
        <ele>2167.9</ele>
        <time>1970-01-01T01:00:00</time>
      </trkpt>
      <trkpt lat="44.386525000" lon="6.906699000">
        <ele>2155.9</ele>
        <time>1970-01-01T01:00:00</time>
      </trkpt>
      <trkpt lat="44.386509000" lon="6.906864000">
        <ele>2151.6</ele>
        <time>1970-01-01T01:00:00</time>
      </trkpt>
      <trkpt lat="44.386659000" lon="6.907034000">
        <ele>2142.4</ele>
        <time>1970-01-01T01:00:00</time>
      </trkpt>
      <trkpt lat="44.386655000" lon="6.907189000">
        <ele>2139.1</ele>
        <time>1970-01-01T01:00:00</time>
      </trkpt>
      <trkpt lat="44.386642000" lon="6.907444000">
        <ele>2128.0</ele>
        <time>1970-01-01T01:00:00</time>
      </trkpt>
      <trkpt lat="44.386826000" lon="6.907581000">
        <ele>2125.1</ele>
        <time>1970-01-01T01:00:00</time>
      </trkpt>
      <trkpt lat="44.386805000" lon="6.907990000">
        <ele>2118.9</ele>
        <time>1970-01-01T01:00:00</time>
      </trkpt>
      <trkpt lat="44.386877000" lon="6.908271000">
        <ele>2107.8</ele>
        <time>1970-01-01T01:00:00</time>
      </trkpt>
      <trkpt lat="44.387019000" lon="6.908317000">
        <ele>2107.3</ele>
        <time>1970-01-01T01:00:00</time>
      </trkpt>
      <trkpt lat="44.387235000" lon="6.908471000">
        <ele>2103.5</ele>
        <time>1970-01-01T01:00:00</time>
      </trkpt>
      <trkpt lat="44.387385000" lon="6.908709000">
        <ele>2100.1</ele>
        <time>1970-01-01T01:00:00</time>
      </trkpt>
      <trkpt lat="44.387559000" lon="6.908879000">
        <ele>2099.2</ele>
        <time>1970-01-01T01:00:00</time>
      </trkpt>
      <trkpt lat="44.387744000" lon="6.909002000">
        <ele>2096.3</ele>
        <time>1970-01-01T01:00:00</time>
      </trkpt>
      <trkpt lat="44.387654000" lon="6.909082000">
        <ele>2094.4</ele>
        <time>1970-01-01T01:00:00</time>
      </trkpt>
      <trkpt lat="44.387641000" lon="6.909174000">
        <ele>2088.6</ele>
        <time>1970-01-01T01:00:00</time>
      </trkpt>
      <trkpt lat="44.387657000" lon="6.909189000">
        <ele>2088.6</ele>
        <time>1970-01-01T01:00:00</time>
      </trkpt>
      <trkpt lat="44.387558000" lon="6.909267000">
        <ele>2084.8</ele>
        <time>1970-01-01T01:00:00</time>
      </trkpt>
      <trkpt lat="44.387557000" lon="6.909318000">
        <ele>2081.4</ele>
        <time>1970-01-01T01:00:00</time>
      </trkpt>
      <trkpt lat="44.387700000" lon="6.909380000">
        <ele>2078.0</ele>
        <time>1970-01-01T01:00:00</time>
      </trkpt>
      <trkpt lat="44.387771000" lon="6.909522000">
        <ele>2073.2</ele>
        <time>1970-01-01T01:00:00</time>
      </trkpt>
      <trkpt lat="44.387854000" lon="6.909556000">
        <ele>2073.7</ele>
        <time>1970-01-01T01:00:00</time>
      </trkpt>
      <trkpt lat="44.387816000" lon="6.909629000">
        <ele>2072.7</ele>
        <time>1970-01-01T01:00:00</time>
      </trkpt>
      <trkpt lat="44.387395000" lon="6.909684000">
        <ele>2064.6</ele>
        <time>1970-01-01T01:00:00</time>
      </trkpt>
      <trkpt lat="44.387387000" lon="6.909807000">
        <ele>2060.2</ele>
        <time>1970-01-01T01:00:00</time>
      </trkpt>
      <trkpt lat="44.387668000" lon="6.909998000">
        <ele>2057.4</ele>
        <time>1970-01-01T01:00:00</time>
      </trkpt>
      <trkpt lat="44.387695000" lon="6.910305000">
        <ele>2048.2</ele>
        <time>1970-01-01T01:00:00</time>
      </trkpt>
      <trkpt lat="44.387680000" lon="6.910340000">
        <ele>2046.8</ele>
        <time>1970-01-01T01:00:00</time>
      </trkpt>
      <trkpt lat="44.387727000" lon="6.910380000">
        <ele>2045.3</ele>
        <time>1970-01-01T01:00:00</time>
      </trkpt>
      <trkpt lat="44.387817000" lon="6.910368000">
        <ele>2042.9</ele>
        <time>1970-01-01T01:00:00</time>
      </trkpt>
      <trkpt lat="44.387836000" lon="6.910477000">
        <ele>2039.6</ele>
        <time>1970-01-01T01:00:00</time>
      </trkpt>
      <trkpt lat="44.387779000" lon="6.910535000">
        <ele>2037.7</ele>
        <time>1970-01-01T01:00:00</time>
      </trkpt>
      <trkpt lat="44.387829000" lon="6.910600000">
        <ele>2034.3</ele>
        <time>1970-01-01T01:00:00</time>
      </trkpt>
      <trkpt lat="44.387832000" lon="6.910659000">
        <ele>2030.0</ele>
        <time>1970-01-01T01:00:00</time>
      </trkpt>
      <trkpt lat="44.387756000" lon="6.910728000">
        <ele>2026.1</ele>
        <time>1970-01-01T01:00:00</time>
      </trkpt>
      <trkpt lat="44.387821000" lon="6.910771000">
        <ele>2022.3</ele>
        <time>1970-01-01T01:00:00</time>
      </trkpt>
      <trkpt lat="44.387822000" lon="6.910771000">
        <ele>2023.7</ele>
        <time>1970-01-01T01:00:00</time>
      </trkpt>
      <trkpt lat="44.387755000" lon="6.910796000">
        <ele>2021.8</ele>
        <time>1970-01-01T01:00:00</time>
      </trkpt>
      <trkpt lat="44.387904000" lon="6.910960000">
        <ele>2015.5</ele>
        <time>1970-01-01T01:00:00</time>
      </trkpt>
      <trkpt lat="44.387787000" lon="6.910978000">
        <ele>2014.1</ele>
        <time>1970-01-01T01:00:00</time>
      </trkpt>
      <trkpt lat="44.387802000" lon="6.911100000">
        <ele>2009.8</ele>
        <time>1970-01-01T01:00:00</time>
      </trkpt>
      <trkpt lat="44.387882000" lon="6.911190000">
        <ele>2007.4</ele>
        <time>1970-01-01T01:00:00</time>
      </trkpt>
      <trkpt lat="44.387828000" lon="6.911173000">
        <ele>2007.4</ele>
        <time>1970-01-01T01:00:00</time>
      </trkpt>
      <trkpt lat="44.387770000" lon="6.911244000">
        <ele>2003.5</ele>
        <time>1970-01-01T01:00:00</time>
      </trkpt>
      <trkpt lat="44.387810000" lon="6.911322000">
        <ele>2002.1</ele>
        <time>1970-01-01T01:00:00</time>
      </trkpt>
      <trkpt lat="44.387732000" lon="6.911342000">
        <ele>1998.7</ele>
        <time>1970-01-01T01:00:00</time>
      </trkpt>
      <trkpt lat="44.387869000" lon="6.911556000">
        <ele>1993.4</ele>
        <time>1970-01-01T01:00:00</time>
      </trkpt>
      <trkpt lat="44.387742000" lon="6.911846000">
        <ele>1983.3</ele>
        <time>1970-01-01T01:00:00</time>
      </trkpt>
      <trkpt lat="44.387659000" lon="6.911970000">
        <ele>1980.9</ele>
        <time>1970-01-01T01:00:00</time>
      </trkpt>
      <trkpt lat="44.387631000" lon="6.912065000">
        <ele>1980.0</ele>
        <time>1970-01-01T01:00:00</time>
      </trkpt>
      <trkpt lat="44.387630000" lon="6.912051000">
        <ele>1980.0</ele>
        <time>1970-01-01T01:00:00</time>
      </trkpt>
      <trkpt lat="44.387529000" lon="6.912205000">
        <ele>1978.5</ele>
        <time>1970-01-01T01:00:00</time>
      </trkpt>
      <trkpt lat="44.387524000" lon="6.912305000">
        <ele>1977.1</ele>
        <time>1970-01-01T01:00:00</time>
      </trkpt>
      <trkpt lat="44.387622000" lon="6.912417000">
        <ele>1970.8</ele>
        <time>1970-01-01T01:00:00</time>
      </trkpt>
      <trkpt lat="44.387725000" lon="6.912580000">
        <ele>1968.0</ele>
        <time>1970-01-01T01:00:00</time>
      </trkpt>
      <trkpt lat="44.388028000" lon="6.913385000">
        <ele>1952.6</ele>
        <time>1970-01-01T01:00:00</time>
      </trkpt>
      <trkpt lat="44.388236000" lon="6.913796000">
        <ele>1944.4</ele>
        <time>1970-01-01T01:00:00</time>
      </trkpt>
      <trkpt lat="44.388488000" lon="6.914175000">
        <ele>1940.1</ele>
        <time>1970-01-01T01:00:00</time>
      </trkpt>
      <trkpt lat="44.388631000" lon="6.914334000">
        <ele>1938.2</ele>
        <time>1970-01-01T01:00:00</time>
      </trkpt>
      <trkpt lat="44.388830000" lon="6.914474000">
        <ele>1934.3</ele>
        <time>1970-01-01T01:00:00</time>
      </trkpt>
      <trkpt lat="44.388889000" lon="6.914492000">
        <ele>1934.8</ele>
        <time>1970-01-01T01:00:00</time>
      </trkpt>
      <trkpt lat="44.389026000" lon="6.914639000">
        <ele>1932.9</ele>
        <time>1970-01-01T01:00:00</time>
      </trkpt>
      <trkpt lat="44.389200000" lon="6.914870000">
        <ele>1930.0</ele>
        <time>1970-01-01T01:00:00</time>
      </trkpt>
      <trkpt lat="44.389365000" lon="6.915110000">
        <ele>1930.0</ele>
        <time>1970-01-01T01:00:00</time>
      </trkpt>
      <trkpt lat="44.389401000" lon="6.915120000">
        <ele>1930.0</ele>
        <time>1970-01-01T01:00:00</time>
      </trkpt>
      <trkpt lat="44.389560000" lon="6.915247000">
        <ele>1926.6</ele>
        <time>1970-01-01T01:00:00</time>
      </trkpt>
      <trkpt lat="44.389895000" lon="6.915308000">
        <ele>1925.7</ele>
        <time>1970-01-01T01:00:00</time>
      </trkpt>
      <trkpt lat="44.390117000" lon="6.915315000">
        <ele>1923.3</ele>
        <time>1970-01-01T01:00:00</time>
      </trkpt>
      <trkpt lat="44.390210000" lon="6.915457000">
        <ele>1917.5</ele>
        <time>1970-01-01T01:00:00</time>
      </trkpt>
      <trkpt lat="44.390441000" lon="6.915787000">
        <ele>1911.7</ele>
        <time>1970-01-01T01:00:00</time>
      </trkpt>
      <trkpt lat="44.390653000" lon="6.915981000">
        <ele>1910.8</ele>
        <time>1970-01-01T01:00:00</time>
      </trkpt>
      <trkpt lat="44.391126000" lon="6.916176000">
        <ele>1907.4</ele>
        <time>1970-01-01T01:00:00</time>
      </trkpt>
      <trkpt lat="44.391350000" lon="6.916282000">
        <ele>1907.9</ele>
        <time>1970-01-01T01:00:00</time>
      </trkpt>
      <trkpt lat="44.391450000" lon="6.916274000">
        <ele>1906.9</ele>
        <time>1970-01-01T01:00:00</time>
      </trkpt>
      <trkpt lat="44.391667000" lon="6.916330000">
        <ele>1903.5</ele>
        <time>1970-01-01T01:00:00</time>
      </trkpt>
      <trkpt lat="44.391782000" lon="6.916386000">
        <ele>1903.5</ele>
        <time>1970-01-01T01:00:00</time>
      </trkpt>
      <trkpt lat="44.391925000" lon="6.916476000">
        <ele>1898.7</ele>
        <time>1970-01-01T01:00:00</time>
      </trkpt>
      <trkpt lat="44.392197000" lon="6.916567000">
        <ele>1895.4</ele>
        <time>1970-01-01T01:00:00</time>
      </trkpt>
      <trkpt lat="44.392291000" lon="6.916650000">
        <ele>1893.9</ele>
        <time>1970-01-01T01:00:00</time>
      </trkpt>
      <trkpt lat="44.392387000" lon="6.916855000">
        <ele>1891.5</ele>
        <time>1970-01-01T01:00:00</time>
      </trkpt>
      <trkpt lat="44.392507000" lon="6.917226000">
        <ele>1890.1</ele>
        <time>1970-01-01T01:00:00</time>
      </trkpt>
      <trkpt lat="44.392787000" lon="6.917519000">
        <ele>1890.1</ele>
        <time>1970-01-01T01:00:00</time>
      </trkpt>
      <trkpt lat="44.392802000" lon="6.917529000">
        <ele>1891.5</ele>
        <time>1970-01-01T01:00:00</time>
      </trkpt>
      <trkpt lat="44.393016000" lon="6.917607000">
        <ele>1888.6</ele>
        <time>1970-01-01T01:00:00</time>
      </trkpt>
      <trkpt lat="44.393241000" lon="6.917634000">
        <ele>1886.2</ele>
        <time>1970-01-01T01:00:00</time>
      </trkpt>
      <trkpt lat="44.393306000" lon="6.917586000">
        <ele>1887.2</ele>
        <time>1970-01-01T01:00:00</time>
      </trkpt>
      <trkpt lat="44.393354000" lon="6.917635000">
        <ele>1887.7</ele>
        <time>1970-01-01T01:00:00</time>
      </trkpt>
      <trkpt lat="44.393572000" lon="6.917618000">
        <ele>1885.8</ele>
        <time>1970-01-01T01:00:00</time>
      </trkpt>
      <trkpt lat="44.393680000" lon="6.917753000">
        <ele>1881.9</ele>
        <time>1970-01-01T01:00:00</time>
      </trkpt>
      <trkpt lat="44.393961000" lon="6.917851000">
        <ele>1878.6</ele>
        <time>1970-01-01T01:00:00</time>
      </trkpt>
      <trkpt lat="44.394389000" lon="6.918097000">
        <ele>1873.3</ele>
        <time>1970-01-01T01:00:00</time>
      </trkpt>
      <trkpt lat="44.394566000" lon="6.918276000">
        <ele>1868.0</ele>
        <time>1970-01-01T01:00:00</time>
      </trkpt>
      <trkpt lat="44.395074000" lon="6.918473000">
        <ele>1861.7</ele>
        <time>1970-01-01T01:00:00</time>
      </trkpt>
      <trkpt lat="44.395355000" lon="6.918681000">
        <ele>1857.9</ele>
        <time>1970-01-01T01:00:00</time>
      </trkpt>
      <trkpt lat="44.395838000" lon="6.919119000">
        <ele>1846.3</ele>
        <time>1970-01-01T01:00:00</time>
      </trkpt>
      <trkpt lat="44.395763000" lon="6.919216000">
        <ele>1843.5</ele>
        <time>1970-01-01T01:00:00</time>
      </trkpt>
      <trkpt lat="44.395706000" lon="6.919234000">
        <ele>1842.5</ele>
        <time>1970-01-01T01:00:00</time>
      </trkpt>
      <trkpt lat="44.395630000" lon="6.919348000">
        <ele>1838.2</ele>
        <time>1970-01-01T01:00:00</time>
      </trkpt>
      <trkpt lat="44.395777000" lon="6.919436000">
        <ele>1834.8</ele>
        <time>1970-01-01T01:00:00</time>
      </trkpt>
      <trkpt lat="44.395830000" lon="6.919442000">
        <ele>1834.8</ele>
        <time>1970-01-01T01:00:00</time>
      </trkpt>
      <trkpt lat="44.395997000" lon="6.919581000">
        <ele>1829.5</ele>
        <time>1970-01-01T01:00:00</time>
      </trkpt>
      <trkpt lat="44.395978000" lon="6.919822000">
        <ele>1827.1</ele>
        <time>1970-01-01T01:00:00</time>
      </trkpt>
      <trkpt lat="44.396596000" lon="6.920464000">
        <ele>1818.5</ele>
        <time>1970-01-01T01:00:00</time>
      </trkpt>
      <trkpt lat="44.396891000" lon="6.920774000">
        <ele>1810.8</ele>
        <time>1970-01-01T01:00:00</time>
      </trkpt>
      <trkpt lat="44.397266000" lon="6.921307000">
        <ele>1803.1</ele>
        <time>1970-01-01T01:00:00</time>
      </trkpt>
      <trkpt lat="44.397466000" lon="6.921678000">
        <ele>1795.9</ele>
        <time>1970-01-01T01:00:00</time>
      </trkpt>
      <trkpt lat="44.397422000" lon="6.922420000">
        <ele>1791.6</ele>
        <time>1970-01-01T01:00:00</time>
      </trkpt>
      <trkpt lat="44.397525000" lon="6.923048000">
        <ele>1782.9</ele>
        <time>1970-01-01T01:00:00</time>
      </trkpt>
      <trkpt lat="44.397649000" lon="6.924073000">
        <ele>1773.8</ele>
        <time>1970-01-01T01:00:00</time>
      </trkpt>
      <trkpt lat="44.397850000" lon="6.924656000">
        <ele>1766.6</ele>
        <time>1970-01-01T01:00:00</time>
      </trkpt>
      <trkpt lat="44.398215000" lon="6.924809000">
        <ele>1763.7</ele>
        <time>1970-01-01T01:00:00</time>
      </trkpt>
      <trkpt lat="44.398276000" lon="6.924759000">
        <ele>1763.2</ele>
        <time>1970-01-01T01:00:00</time>
      </trkpt>
      <trkpt lat="44.398312000" lon="6.924685000">
        <ele>1763.2</ele>
        <time>1970-01-01T01:00:00</time>
      </trkpt>
      <trkpt lat="44.398304000" lon="6.924745000">
        <ele>1762.7</ele>
        <time>1970-01-01T01:00:00</time>
      </trkpt>
      <trkpt lat="44.398360000" lon="6.924757000">
        <ele>1762.7</ele>
        <time>1970-01-01T01:00:00</time>
      </trkpt>
      <trkpt lat="44.398431000" lon="6.924867000">
        <ele>1762.2</ele>
        <time>1970-01-01T01:00:00</time>
      </trkpt>
      <trkpt lat="44.398557000" lon="6.924900000">
        <ele>1763.2</ele>
        <time>1970-01-01T01:00:00</time>
      </trkpt>
      <trkpt lat="44.398641000" lon="6.924882000">
        <ele>1762.7</ele>
        <time>1970-01-01T01:00:00</time>
      </trkpt>
      <trkpt lat="44.398666000" lon="6.924926000">
        <ele>1762.7</ele>
        <time>1970-01-01T01:00:00</time>
      </trkpt>
      <trkpt lat="44.398641000" lon="6.925008000">
        <ele>1762.2</ele>
        <time>1970-01-01T01:00:00</time>
      </trkpt>
      <trkpt lat="44.398688000" lon="6.925183000">
        <ele>1761.8</ele>
        <time>1970-01-01T01:00:00</time>
      </trkpt>
      <trkpt lat="44.398563000" lon="6.925469000">
        <ele>1761.3</ele>
        <time>1970-01-01T01:00:00</time>
      </trkpt>
      <trkpt lat="44.398632000" lon="6.925676000">
        <ele>1757.9</ele>
        <time>1970-01-01T01:00:00</time>
      </trkpt>
      <trkpt lat="44.398770000" lon="6.925764000">
        <ele>1757.9</ele>
        <time>1970-01-01T01:00:00</time>
      </trkpt>
      <trkpt lat="44.398772000" lon="6.925887000">
        <ele>1756.9</ele>
        <time>1970-01-01T01:00:00</time>
      </trkpt>
      <trkpt lat="44.398680000" lon="6.926159000">
        <ele>1757.9</ele>
        <time>1970-01-01T01:00:00</time>
      </trkpt>
      <trkpt lat="44.398663000" lon="6.926603000">
        <ele>1758.4</ele>
        <time>1970-01-01T01:00:00</time>
      </trkpt>
      <trkpt lat="44.398583000" lon="6.926728000">
        <ele>1756.9</ele>
        <time>1970-01-01T01:00:00</time>
      </trkpt>
      <trkpt lat="44.398594000" lon="6.926754000">
        <ele>1752.1</ele>
        <time>1970-01-01T01:00:00</time>
      </trkpt>
      <trkpt lat="44.398597000" lon="6.926754000">
        <ele>1755.0</ele>
        <time>1970-01-01T01:00:00</time>
      </trkpt>
      <trkpt lat="44.398601000" lon="6.926755000">
        <ele>1751.2</ele>
        <time>1970-01-01T01:00:00</time>
      </trkpt>
      <trkpt lat="44.398604000" lon="6.926755000">
        <ele>1756.5</ele>
        <time>1970-01-01T01:00:00</time>
      </trkpt>
    </trkseg>
  </trk>
</gpx>
